Showing default

S80/T, 22078

Orbit data source: Space-Track

S80/T, 22078 is a payload satellite owned by CNES (FR) in LEO that was launched on Mon, 10 Aug 1992 UTC via an ARIANE 42P launch vehicle from the French Guiana (FRGUI). Payload-class satellites include a variety of spacecraft equipped with specific instruments for various scientific and technological missions. These include communications satellites like Starlink; space stations such as the ISS; scientific satellites like the Hubble; Earth observation satellites from companies like Planet Labs, Umbra, and HawkEye 360; GPS; miniature CubeSats for education and research; and military/defense satellites.

Loading next visibility...
Identifier
22078, 1992-052C
Orbit
LEO
Country
Flag of FRFR
Related business
Manufacturer
SSTL/MMST
Mission
Civil Communications
Bus & Motor
UOSAT, Unknown motor
Mass
50 kg wet, 50 kg dry
Launch date (UTC)
1992-08-10 (34 years ago)
Launch vehicle
ARIANE 42P
Launch site
French Guiana (FRGUI)
Object type
Payload
Rocket body
Debris
Shape & HBR
Hex Poly, 0.3 m
Radar Cross Section
0.140 m², Medium (>0.1 m² and < 1m²)

Expand to show TLE details & history
Last TLE update: 7 hours ago

TLE from 7 hours ago
0 S80/T
1 22078U 92052C   26094.26680057 -.00000059  00000-0  11328-4 0  9996
2 22078  66.0848  63.3733 0015469 299.6557  60.2921 12.86851636580724
Epoch: 2026-04-04T06:24Z
TLE epoch observation values (Epoch: 2026-04-04T06:24:11.569Z)
Latitude
0.00001°
Longitude
134.73606°
Altitude
1,310.08 km
Speed
7.205 km/s
True Right ascension
04h 13m 29s
True Declination
0° 00' 00"
Sunlit
Object was in daylight at epoch
Visualization orbit readout
Latitude
Unknown
Longitude
Unknown
Altitude
Unknown
Speed
Unknown
Apparent Right ascension
Unknown
Apparent Declination
Unknown
Sunlit
N/A
Visualization observer readout
Local Sidereal Time
19:12:31
Azimuth
Unknown
Elevation
Unknown
Doppler factor
Unknown
Orbital elements
Apogee altitude
1,324.495 km
Perigee altitude
1,300.701 km
Semi-major axis
7,690.735 km
Eccentricity
0.00155
Inclination
66.0848°
RAAN
63.3733°
Arg. of periapsis
299.6557°
True anomaly
60.44621°
Mean anomaly
60.2921°
Eccentric anomaly
60.36914°
Mean motion
3.21804 °/min
Orbital period
111.87 mins
BSTAR
0.000011328
Loading maneuver chart data...
Computing Atmospheric mass density...
Loading historical data...
Loading historical data...
Loading historical data...
Loading historical data...
Loading historical data...
Loading historical data...
Loading historical data...

Documentation

Showing up to 5 results
|